sat.trackr.live / text

‹ back to catalog

STARLINK-1608

NORAD 46146 · 2020-057AF

PAYLOAD ACTIVE UNKNOWN

§ Identity

Operator
Country
US
Launch date
2020-08-18
Launch site
AFETR
Launch vehicle
Mass (kg)
RCS (m²)

Purposes: comms

External: N2YO · Heavens-Above · Gunter

§ Orbital elements

Epoch: 2026-05-25T04:21:03.760128Z

Period
93.84 min
Inclination
53.1601°
Eccentricity
0.0001716
Mean motion
15.34532026 rev/d
Perigee alt
461.1 km
Apogee alt
463.5 km
Semi-major
6,840.4 km
B*
1.4247e-3
RAAN
313.1768°
Arg perigee
277.3948°
Mean anomaly
82.6859°
Rev number
31,790

§ Raw data

STARLINK-16081 46146U 20057AF  26145.18129352  .00048273  00000+0  14247-2 0  99972 46146  53.1601 313.1768 0001716 277.3948  82.6859 15.34532026317902

JSON: /api/v1/satellites/46146 · /tle

For live sub-satellite position, see the globe view (requires WebGL).

§ Visibility from observer

Set your observer location to see the next 7 days of passes ≥ 10°. The values pass through the URL so the page stays shareable.

No JS? Fill the form by hand. The geolocation button needs JavaScript.